Zurück zum Katalog

STARLINK-31053

AktivKommunikationVLEO
NORAD 58549·PAYLOAD·🇺🇸 United States

Gestartet Dec 8, 2023 von Vandenberg Space Force Base

Loading…

Nächste Überflüge (nächste 24 Stunden)

TLE

AktuellSource: CelesTrak SupGP

Epoche: Sep 14, 2026, 21:35 UTC

1 58549C 23192U   26257.89979167  .00049298  00000+0  14567-2 0  2579
2 58549  53.1573 259.9116 0001364  92.1599 142.8388 15.34363077    13

Verfolge STARLINK-31053 in Echtzeit mit AllMySat

Download on the App Store